Tracking 33744 objects as of 13-Apr-2026
HD Live streaming from Space Station
objects crossing your sky now

STARLINK-36703

Track STARLINK-36703 now!
10-day predictions
STARLINK-36703 is classified as:


NORAD ID: 67650
Int'l Code: 2026-022C
Perigee: 469.5 km
Apogee: 470.8 km
Inclination: 97.3 °
Period: 93.9 minutes
Semi major axis: 6841 km
RCS: Unknown
Launch date: February 2, 2026
Source: United States (US)
Launch site: AIR FORCE WESTERN TEST RANGE (AFWTR)
Your satellite tracking list
Your tracking list is empty




NASA's NSSDC Master Catalog

Two Line Element Set (TLE):
1 67650U 26022C   26102.36425503  .00015203  00000-0  45995-3 0  9991
2 67650  97.2868 136.2277 0000941  96.4947 263.6403 15.34287215 10730
Source of the keplerian elements: AFSPC